Retour au catalogue

FENGYUN 1C DEB

ActifSSO
NORAD 31381·DEBRIS·🇨🇳 China

Lancé May 10, 1999 depuis Taiyuan Satellite Launch Center

Loading…

Prochains Passages (prochaines 24 heures)

TLE

VieillissantSource: Space-Track

Époque: Sep 6, 2026, 11:54 UTC

1 31381U 99025BSM 26249.49630712  .00000354  00000-0  10828-3 0  9990
2 31381  98.4774 334.5184 0194730 312.3501  46.1334 14.37924240 12442

Suivez FENGYUN 1C DEB en temps réel avec AllMySat

Download on the App Store